Time,TemperatureF,DewpointF,PressureIn,WindDirection,WindDirectionDegrees,WindSpeedMPH,WindSpeedGustMPH,Humidity,HourlyPrecipIn,Conditions,Clouds,dailyrainin,SolarRadiationWatts/m^2,SoftwareType,DateUTC
2013-01-01 01:00:00,18.0,17.0,30.10,SSW,213,5.0,-999.0,96,-99.99,,,-99.99,0.000000,,2013-01-01 08:00:00,
2013-01-01 01:53:00,18.0,17.0,30.10,SSW,213,5.0,-999.0,96,-99.99,,,-99.99,0.000000,,2013-01-01 08:53:00,
2013-01-01 02:00:00,16.0,15.0,30.11,SW,214,5.0,-999.0,95,-99.99,,,-99.99,0.000000,,2013-01-01 09:00:00,
2013-01-01 02:52:00,16.0,15.0,30.11,SW,214,5.0,-999.0,95,-99.99,,,-99.99,0.000000,,2013-01-01 09:52:00,
2013-01-01 03:00:00,14.0,13.0,30.11,SW,223,5.0,-999.0,95,-99.99,,,-99.99,0.000000,,2013-01-01 10:00:00,
2013-01-01 03:53:00,14.0,13.0,30.11,SW,223,5.0,-999.0,95,-99.99,,,-99.99,0.000000,,2013-01-01 10:53:00,
2013-01-01 04:00:00,12.0,10.0,30.10,SW,227,6.0,-999.0,94,-99.99,,,-99.99,0.000000,,2013-01-01 11:00:00,
2013-01-01 04:53:00,12.0,10.0,30.10,SW,227,6.0,-999.0,94,-99.99,,,-99.99,0.000000,,2013-01-01 11:53:00,
2013-01-01 05:00:00,11.0,9.0,30.11,WSW,246,6.0,-999.0,93,-99.99,,,-99.99,0.000000,,2013-01-01 12:00:00,
2013-01-01 05:53:00,11.0,9.0,30.11,WSW,246,6.0,-999.0,93,-99.99,,,-99.99,0.000000,,2013-01-01 12:53:00,
2013-01-01 06:00:00,9.0,7.0,30.10,WSW,247,5.0,-999.0,93,-99.99,,,-99.99,0.000000,,2013-01-01 13:00:00,
2013-01-01 06:53:00,9.0,7.0,30.10,WSW,247,5.0,-999.0,93,-99.99,,,-99.99,0.000000,,2013-01-01 13:53:00,
2013-01-01 07:00:00,5.0,3.0,30.11,WSW,242,6.0,-999.0,89,-99.99,,,-99.99,0.120000,,2013-01-01 14:00:00,
2013-01-01 07:53:00,5.0,3.0,30.11,WSW,242,6.0,-999.0,89,-99.99,,,-99.99,0.120000,,2013-01-01 14:53:00,
2013-01-01 08:00:00,8.0,6.0,30.13,WSW,252,5.0,-999.0,91,-99.99,,,-99.99,25.190001,,2013-01-01 15:00:00,
2013-01-01 08:53:00,8.0,6.0,30.13,WSW,252,5.0,-999.0,91,-99.99,,,-99.99,25.190001,,2013-01-01 15:53:00,
2013-01-01 09:00:00,11.0,9.0,30.16,WSW,253,5.0,-999.0,91,-99.99,,,-99.99,93.800003,,2013-01-01 16:00:00,
2013-01-01 09:53:00,11.0,9.0,30.16,WSW,253,5.0,-999.0,91,-99.99,,,-99.99,93.800003,,2013-01-01 16:53:00,
2013-01-01 10:00:00,14.0,12.0,30.17,West,267,5.0,-999.0,88,-99.99,,,-99.99,200.399994,,2013-01-01 17:00:00,
2013-01-01 10:53:00,14.0,12.0,30.17,West,267,5.0,-999.0,88,-99.99,,,-99.99,200.399994,,2013-01-01 17:53:00,
2013-01-01 11:00:00,19.0,14.0,30.17,WSW,255,5.0,-999.0,81,-99.99,,,-99.99,291.200012,,2013-01-01 18:00:00,
2013-01-01 11:53:00,19.0,14.0,30.17,WSW,255,5.0,-999.0,81,-99.99,,,-99.99,291.200012,,2013-01-01 18:53:00,
2013-01-01 12:00:00,21.0,13.0,30.14,West,263,7.0,-999.0,71,-99.99,,,-99.99,335.500000,,2013-01-01 19:00:00,
2013-01-01 12:53:00,21.0,13.0,30.14,West,263,7.0,-999.0,71,-99.99,,,-99.99,335.500000,,2013-01-01 19:53:00,
2013-01-01 13:00:00,23.0,14.0,30.11,West,270,9.0,-999.0,68,-99.99,,,-99.99,347.500000,,2013-01-01 20:00:00,
2013-01-01 13:53:00,23.0,14.0,30.11,West,270,9.0,-999.0,68,-99.99,,,-99.99,347.500000,,2013-01-01 20:53:00,
2013-01-01 14:00:00,25.0,15.0,30.11,West,272,8.0,-999.0,66,-99.99,,,-99.99,313.799988,,2013-01-01 21:00:00,
2013-01-01 14:53:00,25.0,15.0,30.11,West,272,8.0,-999.0,66,-99.99,,,-99.99,313.799988,,2013-01-01 21:53:00,
2013-01-01 15:00:00,24.0,15.0,30.10,West,259,5.0,-999.0,68,-99.99,,,-99.99,259.700012,,2013-01-01 22:00:00,
2013-01-01 15:53:00,24.0,15.0,30.10,West,259,5.0,-999.0,68,-99.99,,,-99.99,259.700012,,2013-01-01 22:53:00,
2013-01-01 16:00:00,23.0,13.0,30.09,SW,235,4.0,-999.0,66,-99.99,,,-99.99,132.300003,,2013-01-01 23:00:00,
2013-01-01 16:53:00,23.0,13.0,30.09,SW,235,4.0,-999.0,66,-99.99,,,-99.99,132.300003,,2013-01-01 23:53:00,